Hourly Data Report for September 18, 2017

All times are specified in Local Standard Time (LST). Add 1 hour to adjust for Daylight Saving Time where and when it is observed.

DOAKTOWN AUTO RCS
NEW BRUNSWICK

46°35'06.090" N
66°00'35.071" W
43.00 m
8101201
71038
ADN

Download Data

Hourly Data (September 2017)
Hourly Data Report for September 18, 2017
Temp Definition
°C
Dew Point Temp Definition
°C
Rel Hum Definition
%
Wind Dir Definition
10's deg

Wind Spd Definition
km/h
Visibility Definition
km
Stn Press Definition
kPa
Hmdx Definition


Wind Chill Definition


Weather Definition


TIME
00:00 13.7 12.9 95 4 3   101.67     LegendNANA
01:00 13.5 12.7 95 35 3   101.66     LegendNANA
02:00 13.1 12.4 95 4 4   101.65     LegendNANA
03:00 13.0 12.3 96 0 1   101.62     LegendNANA
04:00 12.9 12.2 96 1 2   101.66     LegendNANA
05:00 12.6 11.9 96 35 2   101.69     LegendNANA
06:00 12.3 11.6 96 2 1   101.74     LegendNANA
07:00 12.3 11.7 96 0 1   101.76     LegendNANA
08:00 12.8 12.2 96 0 1   101.81     LegendNANA
09:00 13.4 12.7 96 4 2   101.84     LegendNANA
10:00 14.2 13.5 96 3 1   101.84     LegendNANA
11:00 14.9 14.0 94   0   101.83     LegendNANA
12:00 16.0 14.5 91 31 1   101.82     LegendNANA
13:00 17.0 14.9 88 0 1   101.79     LegendNANA
14:00 17.7 14.9 84 14 3   101.78     LegendNANA
15:00 17.9 15.3 85 7 4   101.79     LegendNANA
16:00 18.2 15.6 85 6 6   101.75     LegendNANA
17:00 18.6 16.0 85 4 4   101.75     LegendNANA
18:00 17.9 15.8 88 2 4   101.77     LegendNANA
19:00 17.4 16.0 91 5 5   101.79     LegendNANA
20:00 16.9 15.7 93 7 7   101.84     LegendNANA
21:00 16.7 15.8 94 3 2   101.86     LegendNANA
22:00 16.4 15.7 95 34 1   101.85     LegendNANA
23:00 16.3 15.7 96   0   101.82     LegendNANA

Notes on Data Quality.

Legend

  • E = Estimated
  • M = Missing
  • NA = Not Available
  • ‡ = Partner data that is not subject to review by the National Climate Archives
Date modified: